| time (UTC) | temp F | wind direction | speed MPH | gust MPH | rain 1hr in | rain 24hr in | rain mn in | humidity % | barometer mb |
| 20260506011530 | 76 | 63 | 5.0 | 9.0 | 0.00 | 0.00 | 0.00 | 44 | 1015.3 |
| 20260506010033 | 77 | 53 | 4.0 | 8.0 | 0.00 | 0.00 | 0.00 | 42 | 1015.2 |
| 20260506004534 | 78 | 46 | 5.0 | 10.0 | 0.00 | 0.00 | 0.00 | 40 | 1015.2 |
| 20260506003035 | 79 | 52 | 5.0 | 10.0 | 0.00 | 0.00 | 0.00 | 37 | 1015.2 |
| 20260506001641 | 79 | 51 | 4.0 | 9.0 | 0.00 | 0.00 | 0.00 | 35 | 1015.1 |
| 20260506000106 | 79 | 57 | 4.0 | 7.0 | 0.00 | 0.00 | 0.00 | 36 | 1015.3 |
| 20260505234608 | 79 | 53 | 5.0 | 10.0 | 0.00 | 0.00 | 0.00 | 36 | 1015.4 |
| 20260505233031 | 79 | 51 | 5.0 | 10.0 | 0.00 | 0.00 | 0.00 | 36 | 1015.4 |
| 20260505231531 | 79 | 40 | 6.0 | 11.0 | 0.00 | 0.00 | 0.00 | 37 | 1015.5 |
| 20260505230032 | 79 | 49 | 5.0 | 10.0 | 0.00 | 0.00 | 0.00 | 37 | 1015.6 |
| 20260505224536 | 79 | 40 | 5.0 | 10.0 | 0.00 | 0.00 | 0.00 | 38 | 1015.7 |
| 20260505223035 | 79 | 53 | 3.0 | 7.0 | 0.00 | 0.00 | 0.00 | 38 | 1015.8 |
| 20260505221606 | 78 | 39 | 4.0 | 8.0 | 0.00 | 0.00 | 0.00 | 39 | 1015.9 |
| 20260505220032 | 77 | 42 | 4.0 | 9.0 | 0.00 | 0.00 | 0.00 | 40 | 1016.0 |
| 20260505214537 | 77 | 44 | 5.0 | 10.0 | 0.00 | 0.00 | 0.00 | 40 | 1016.1 |
| 20260505213034 | 76 | 41 | 4.0 | 10.0 | 0.00 | 0.00 | 0.00 | 40 | 1016.2 |
| 20260505211531 | 76 | 56 | 3.0 | 9.0 | 0.00 | 0.00 | 0.00 | 43 | 1016.5 |
| 20260505204537 | 76 | 53 | 4.0 | 8.0 | 0.00 | 0.00 | 0.00 | 43 | 1016.5 |
| 20260505201544 | 75 | 44 | 4.0 | 9.0 | 0.00 | 0.00 | 0.00 | 45 | 1016.7 |
| 20260505200038 | 75 | 43 | 5.0 | 10.0 | 0.00 | 0.00 | 0.00 | 46 | 1016.7 |
| 20260505194535 | 75 | 37 | 4.0 | 9.0 | 0.00 | 0.00 | 0.00 | 46 | 1016.8 |
| 20260505193031 | 74 | 28 | 3.0 | 7.0 | 0.00 | 0.00 | 0.00 | 48 | 1016.8 |
| 20260505191533 | 73 | 46 | 3.0 | 8.0 | 0.00 | 0.00 | 0.00 | 49 | 1016.8 |
| 20260505190036 | 73 | 51 | 3.0 | 9.0 | 0.00 | 0.00 | 0.00 | 49 | 1017.0 |
| 20260505184535 | 72 | 64 | 4.0 | 8.0 | 0.00 | 0.00 | 0.00 | 52 | 1017.1 |
| 20260505183036 | 71 | 61 | 4.0 | 7.0 | 0.00 | 0.00 | 0.00 | 53 | 1017.0 |
| 20260505181608 | 70 | 60 | 4.0 | 9.0 | 0.00 | 0.00 | 0.00 | 54 | 1016.9 |
| 20260505180033 | 69 | 64 | 3.0 | 9.0 | 0.00 | 0.00 | 0.00 | 55 | 1016.9 |
| 20260505174531 | 69 | 57 | 4.0 | 8.0 | 0.00 | 0.00 | 0.00 | 57 | 1016.9 |
| 20260505173030 | 68 | 44 | 3.0 | 7.0 | 0.00 | 0.00 | 0.00 | 58 | 1016.9 |
| 20260505171605 | 67 | 42 | 4.0 | 9.0 | 0.00 | 0.00 | 0.00 | 60 | 1016.8 |
| 20260505170029 | 66 | 46 | 4.0 | 8.0 | 0.00 | 0.00 | 0.00 | 61 | 1016.8 |
| 20260505164532 | 65 | 43 | 3.0 | 7.0 | 0.00 | 0.00 | 0.00 | 62 | 1016.8 |
| 20260505163036 | 64 | 51 | 3.0 | 6.0 | 0.00 | 0.00 | 0.00 | 63 | 1016.7 |
| 20260505161536 | 64 | 57 | 3.0 | 7.0 | 0.00 | 0.00 | 0.00 | 65 | 1016.8 |
| 20260505153034 | 61 | 91 | 2.0 | 5.0 | 0.00 | 0.00 | 0.00 | 71 | 1016.3 |
| 20260505151537 | 60 | 111 | 1.0 | 4.0 | 0.00 | 0.00 | 0.00 | 74 | 1016.4 |
| 20260505130107 | 49 | 125 | 2.0 | 4.0 | 0.00 | 0.00 | 0.00 | 85 | 1015.0 |
| 20260505124532 | 50 | 151 | 2.0 | 4.0 | 0.00 | 0.00 | 0.00 | 84 | 1014.8 |
| 20260505123036 | 51 | 97 | 0.0 | 4.0 | 0.00 | 0.00 | 0.00 | 83 | 1014.7 |
| 20260505121535 | 51 | 105 | 3.0 | 4.0 | 0.00 | 0.00 | 0.00 | 82 | 1014.6 |
| 20260505120036 | 52 | 130 | 3.0 | 4.0 | 0.00 | 0.00 | 0.00 | 81 | 1014.7 |
| 20260505113035 | 52 | 169 | 0.0 | 3.0 | 0.00 | 0.00 | 0.00 | 79 | 1014.5 |
| 20260505111537 | 51 | 289 | 0.0 | 4.0 | 0.00 | 0.00 | 0.00 | 80 | 1014.4 |
| 20260505101536 | 53 | 247 | 2.0 | 3.0 | 0.00 | 0.00 | 0.00 | 77 | 1014.1 |
| 20260505100044 | 54 | 316 | 1.0 | 4.0 | 0.00 | 0.00 | 0.00 | 77 | 1014.1 |
| 20260505094536 | 54 | 12 | 1.0 | 3.0 | 0.00 | 0.00 | 0.00 | 75 | 1014.0 |
| 20260505093143 | 55 | 22 | 1.0 | 3.0 | 0.00 | 0.00 | 0.00 | 75 | 1014.1 |
| 20260505091608 | 55 | 22 | 3.0 | 5.0 | 0.00 | 0.00 | 0.00 | 74 | 1014.0 |
| 20260505084616 | 56 | 36 | 3.0 | 6.0 | 0.00 | 0.00 | 0.00 | 72 | 1013.9 |
| 20260505083034 | 57 | 50 | 3.0 | 5.0 | 0.00 | 0.00 | 0.00 | 72 | 1013.9 |
| 20260505081530 | 57 | 26 | 4.0 | 6.0 | 0.00 | 0.00 | 0.00 | 71 | 1013.9 |
| 20260505080051 | 57 | 31 | 3.0 | 5.0 | 0.00 | 0.00 | 0.00 | 70 | 1013.9 |
| 20260505074530 | 57 | 47 | 3.0 | 6.0 | 0.00 | 0.00 | 0.00 | 68 | 1013.9 |
| 20260505073106 | 59 | 29 | 3.0 | 5.0 | 0.00 | 0.00 | 0.00 | 66 | 1013.7 |
| 20260505064534 | 61 | 305 | 3.0 | 7.0 | 0.00 | 0.00 | 0.00 | 61 | 1013.5 |
| 20260505061536 | 62 | 309 | 4.0 | 10.0 | 0.00 | 0.00 | 0.00 | 57 | 1013.5 |
| 20260505060036 | 62 | 317 | 4.0 | 11.0 | 0.00 | 0.00 | 0.00 | 57 | 1013.5 |
| 20260505054536 | 62 | 313 | 4.0 | 10.0 | 0.00 | 0.00 | 0.00 | 56 | 1013.4 |
| 20260505053032 | 63 | 320 | 2.0 | 9.0 | 0.00 | 0.00 | 0.00 | 53 | 1013.4 |
| 20260505051531 | 63 | 321 | 4.0 | 8.0 | 0.00 | 0.00 | 0.00 | 52 | 1013.2 |
| 20260505041642 | 66 | 298 | 10.0 | 18.0 | 0.00 | 0.00 | 0.00 | 45 | 1012.5 |
| 20260505040049 | 66 | 300 | 10.0 | 23.0 | 0.00 | 0.00 | 0.00 | 44 | 1012.3 |
| 20260505034528 | 66 | 302 | 9.0 | 18.0 | 0.00 | 0.00 | 0.00 | 43 | 1012.1 |
| 20260505033030 | 67 | 305 | 8.0 | 17.0 | 0.00 | 0.00 | 0.00 | 41 | 1012.0 |
| 20260505021535 | 73 | 314 | 8.0 | 15.0 | 0.00 | 0.00 | 0.00 | 32 | 1011.6 |
| 20260505014531 | 75 | 306 | 10.0 | 20.0 | 0.00 | 0.00 | 0.00 | 30 | 1011.4 |
| 20260505013030 | 76 | 306 | 10.0 | 20.0 | 0.00 | 0.00 | 0.00 | 29 | 1011.6 |